Carlsbad, NM

11:20 PM MST on February 18, 2018 (GMT -0700)
Cavern City

Weather History for KCNM - April, 2014

Change the Weather History Date:

Saturday, April 5, 2014

  Actual Average Record
Temperature  
Mean Temperature 57 °F -  
Max Temperature 78 °F 75 °F 93 °F (2006)
Min Temperature 39 °F 41 °F 28 °F (1973)
Degree Days  
Heating Degree Days 8    
Growing Degree Days 7 (Base 50)    
Moisture  
Dew Point 19 °F    
Average Humidity 24    
Maximum Humidity 38    
Minimum Humidity 10    
Precipitation  
Precipitation 0.00 in - - ()
Sea Level Pressure  
Sea Level Pressure 29.74 in    
Wind  
Wind Speed 6 mph (South)    
Max Wind Speed 18 mph    
Max Gust Speed 28 mph    
Visibility 10 miles    
Events      
Averages and records for this station are not official NWS values.
T = Trace of Precipitation, MM = Missing Value Source: NWS Daily Summary

Daily Weather History Graph

Daily Weather History Graph

Search for Another Location

Airport or City:

Trip Planner

Search our weather history database for the weather conditions in past years. The results will help you decide how hot, cold, wet, or windy it might be!

Date:

Astronomy

Apr. 05, 2014 Rise Set
Actual Time 6:40 AM MDT 7:19 PM MDT
Civil Twilight 6:15 AM MDT 7:44 PM MDT
Nautical Twilight 5:46 AM MDT 8:13 PM MDT
Astronomical Twilight 5:16 AM MDT 8:43 PM MDT
Moon 11:01 AM MDT (4/5) 12:19 AM MDT (4/5)
Length of Visible Light 13h 29m
Length of Day
12h 39m
Waxing Crescent, 35% of the Moon is Illuminated
Apr 5
Waxing Crescent
Apr 7
First Quarter
Apr 15
Full
Apr 22
Last Quarter
Apr 29
New

Hourly Weather History & Observations

Time (MDT) Temp. Windchill Dew Point Humidity Pressure Visibility Wind Dir Wind Speed Gust Speed Precip Events Conditions
12:53 AM 48.0 °F - 15.1 °F 27% 29.88 in 10.0 mi Calm Calm - N/A   Clear
1:53 AM 50.0 °F - 15.1 °F 25% 29.85 in 10.0 mi Calm Calm - N/A   Clear
2:53 AM 43.0 °F - 16.0 °F 34% 29.83 in 10.0 mi Calm Calm - N/A   Clear
3:53 AM 43.0 °F - 16.0 °F 34% 29.82 in 10.0 mi Calm Calm - N/A   Clear
4:53 AM 39.0 °F - 15.1 °F 38% 29.80 in 10.0 mi Calm Calm - N/A   Clear
5:53 AM 42.1 °F 37.7 °F 16.0 °F 35% 29.81 in 10.0 mi WNW 6.9 mph - N/A   Clear
6:53 AM 41.0 °F 37.1 °F 16.0 °F 36% 29.81 in 10.0 mi ENE 5.8 mph - N/A   Clear
7:53 AM 48.0 °F - 21.0 °F 34% 29.81 in 10.0 mi ENE 4.6 mph - N/A   Clear
8:53 AM 57.0 °F - 26.1 °F 30% 29.81 in 10.0 mi SSE 11.5 mph - N/A   Clear
9:53 AM 61.0 °F - 27.0 °F 27% 29.80 in 10.0 mi SSE 15.0 mph 21.9 mph N/A   Clear
10:53 AM 62.1 °F - 25.0 °F 24% 29.79 in 10.0 mi SE 16.1 mph - N/A   Clear
11:53 AM 64.9 °F - 26.1 °F 23% 29.75 in 10.0 mi SE 8.1 mph - N/A   Clear
12:53 PM 68.0 °F - 28.0 °F 22% 29.72 in 10.0 mi SSE 13.8 mph - N/A   Clear
1:53 PM 70.0 °F - 27.0 °F 20% 29.67 in 10.0 mi East 6.9 mph - N/A   Clear
2:53 PM 72.0 °F - 26.1 °F 18% 29.65 in 10.0 mi SSE 16.1 mph 23.0 mph N/A   Mostly Cloudy
3:53 PM 73.9 °F - 25.0 °F 16% 29.61 in 10.0 mi South 11.5 mph 20.7 mph N/A   Mostly Cloudy
4:53 PM 73.9 °F - 24.1 °F 16% 29.61 in 10.0 mi Variable 3.5 mph - N/A   Clear
5:53 PM 75.9 °F - 16.0 °F 10% 29.60 in 10.0 mi West 18.4 mph - N/A   Clear
6:53 PM 72.0 °F - 10.9 °F 10% 29.62 in 10.0 mi West 18.4 mph 27.6 mph N/A   Clear
7:53 PM 68.0 °F - 10.0 °F 11% 29.64 in 10.0 mi West 8.1 mph - N/A   Clear
8:53 PM 64.0 °F - 9.0 °F 12% 29.67 in 10.0 mi South 8.1 mph - N/A   Clear
9:53 PM 60.1 °F - 10.0 °F 14% 29.70 in 10.0 mi SSW 8.1 mph - N/A   Clear
10:53 PM 57.0 °F - 15.1 °F 19% 29.72 in 10.0 mi SSW 6.9 mph - N/A   Clear
11:53 PM 61.0 °F - 32.0 °F 34% 29.73 in 10.0 mi South 5.8 mph - N/A   Clear